Year,Month,Day,Hour,Minute,Value (Times are PST for temperature in C)
2015,06,22,00,00,16.00
2015,06,22,00,01,16.00
2015,06,22,00,02,15.90
2015,06,22,00,03,15.90
2015,06,22,00,04,15.90
2015,06,22,00,05,15.90
2015,06,22,00,06,15.80
2015,06,22,00,07,15.80
2015,06,22,00,08,15.80
2015,06,22,00,09,15.80
2015,06,22,00,10,15.80
2015,06,22,00,11,15.80
2015,06,22,00,12,15.70
2015,06,22,00,13,15.70
2015,06,22,00,14,15.70
2015,06,22,00,15,15.70
2015,06,22,00,16,15.60
2015,06,22,00,17,15.60
2015,06,22,00,18,15.60
2015,06,22,00,19,15.60
2015,06,22,00,20,15.50
2015,06,22,00,21,15.50
2015,06,22,00,22,15.50
2015,06,22,00,23,15.50
2015,06,22,00,24,15.50
2015,06,22,00,25,15.50
2015,06,22,00,26,15.50
2015,06,22,00,27,15.40
2015,06,22,00,28,15.40
2015,06,22,00,29,15.50
2015,06,22,00,30,15.50
2015,06,22,00,31,15.50
2015,06,22,00,32,15.50
2015,06,22,00,33,15.50
2015,06,22,00,34,15.50
2015,06,22,00,35,15.50
2015,06,22,00,36,15.50
2015,06,22,00,37,15.50
2015,06,22,00,38,15.50
2015,06,22,00,39,15.40
2015,06,22,00,40,15.40
2015,06,22,00,41,15.40
2015,06,22,00,42,15.30
2015,06,22,00,43,15.30
2015,06,22,00,44,15.30
2015,06,22,00,45,15.30
2015,06,22,00,46,15.20
2015,06,22,00,47,15.20
2015,06,22,00,48,15.20
2015,06,22,00,49,15.20
2015,06,22,00,50,15.20
2015,06,22,00,51,15.10
2015,06,22,00,52,15.10
2015,06,22,00,53,15.10
2015,06,22,00,54,15.10
2015,06,22,00,55,15.00
2015,06,22,00,56,15.00
2015,06,22,00,57,15.00
2015,06,22,00,58,15.00
2015,06,22,00,59,15.00
2015,06,22,01,00,14.90
2015,06,22,01,01,14.90
2015,06,22,01,02,14.90
2015,06,22,01,03,14.90
2015,06,22,01,04,14.90
2015,06,22,01,05,14.90
2015,06,22,01,06,14.90
2015,06,22,01,07,14.80
2015,06,22,01,08,14.80
2015,06,22,01,09,14.80
2015,06,22,01,10,14.80
2015,06,22,01,11,14.80
2015,06,22,01,12,14.80
2015,06,22,01,13,14.80
2015,06,22,01,14,14.80
2015,06,22,01,15,14.80
2015,06,22,01,16,14.80
2015,06,22,01,17,14.80
2015,06,22,01,18,14.70
2015,06,22,01,19,14.70
2015,06,22,01,20,14.70
2015,06,22,01,21,14.70
2015,06,22,01,22,14.70
2015,06,22,01,23,14.60
2015,06,22,01,24,14.60
2015,06,22,01,25,14.60
2015,06,22,01,26,14.60
2015,06,22,01,27,14.50
2015,06,22,01,28,14.50
2015,06,22,01,29,14.40
2015,06,22,01,30,14.40
2015,06,22,01,31,14.40
2015,06,22,01,32,14.40
2015,06,22,01,33,14.40
2015,06,22,01,34,14.40
2015,06,22,01,35,14.40
2015,06,22,01,36,14.40
2015,06,22,01,37,14.40
2015,06,22,01,38,14.40
2015,06,22,01,39,14.40
2015,06,22,01,40,14.40
2015,06,22,01,41,14.40
2015,06,22,01,42,14.40
2015,06,22,01,43,14.40
2015,06,22,01,44,14.40
2015,06,22,01,45,14.30
2015,06,22,01,46,14.30
2015,06,22,01,47,14.30
2015,06,22,01,48,14.30
2015,06,22,01,49,14.30
2015,06,22,01,50,14.30
2015,06,22,01,51,14.30
2015,06,22,01,52,14.30
2015,06,22,01,53,14.30
2015,06,22,01,54,14.30
2015,06,22,01,55,14.30
2015,06,22,01,56,14.30
2015,06,22,01,57,14.30
2015,06,22,01,58,14.30
2015,06,22,01,59,14.30
2015,06,22,02,00,14.20
2015,06,22,02,01,14.20
2015,06,22,02,02,14.20
2015,06,22,02,03,14.20
2015,06,22,02,04,14.10
2015,06,22,02,05,14.10
2015,06,22,02,06,14.10
2015,06,22,02,07,14.10
2015,06,22,02,08,14.10
2015,06,22,02,09,14.10
2015,06,22,02,10,14.00
2015,06,22,02,11,14.00
2015,06,22,02,12,14.00
2015,06,22,02,13,14.00
2015,06,22,02,14,14.00
2015,06,22,02,15,14.00
2015,06,22,02,16,14.00
2015,06,22,02,17,14.00
2015,06,22,02,18,13.90
2015,06,22,02,19,13.90
2015,06,22,02,20,13.90
2015,06,22,02,21,13.90
2015,06,22,02,22,13.90
2015,06,22,02,23,13.80
2015,06,22,02,24,13.80
2015,06,22,02,25,13.80
2015,06,22,02,26,13.80
2015,06,22,02,27,13.80
2015,06,22,02,28,13.80
2015,06,22,02,29,13.80
2015,06,22,02,30,13.80
2015,06,22,02,31,13.70
2015,06,22,02,32,13.70
2015,06,22,02,33,13.70
2015,06,22,02,34,13.70
2015,06,22,02,35,13.70
2015,06,22,02,36,13.70
2015,06,22,02,37,13.70
2015,06,22,02,38,13.70
2015,06,22,02,39,13.70
2015,06,22,02,40,13.70
2015,06,22,02,41,13.70
2015,06,22,02,42,13.70
2015,06,22,02,43,13.70
2015,06,22,02,44,13.70
2015,06,22,02,45,13.80
2015,06,22,02,46,13.80
2015,06,22,02,47,13.80
2015,06,22,02,48,13.80
2015,06,22,02,49,13.80
2015,06,22,02,50,13.80
2015,06,22,02,51,13.80
2015,06,22,02,52,13.80
2015,06,22,02,53,13.70
2015,06,22,02,54,13.70
2015,06,22,02,55,13.70
2015,06,22,02,56,13.70
2015,06,22,02,57,13.70
2015,06,22,02,58,13.70
2015,06,22,02,59,13.70
2015,06,22,03,00,13.60
2015,06,22,03,01,13.60
2015,06,22,03,02,13.60
2015,06,22,03,03,13.60
2015,06,22,03,04,13.60
2015,06,22,03,05,13.50
2015,06,22,03,06,13.50
2015,06,22,03,07,13.50
2015,06,22,03,08,13.50
2015,06,22,03,09,13.40
2015,06,22,03,10,13.40
2015,06,22,03,11,13.40
2015,06,22,03,12,13.30
2015,06,22,03,13,13.30
2015,06,22,03,14,13.30
2015,06,22,03,15,13.30
2015,06,22,03,16,13.20
2015,06,22,03,17,13.20
2015,06,22,03,18,13.20
2015,06,22,03,19,13.20
2015,06,22,03,20,13.20
2015,06,22,03,21,13.20
2015,06,22,03,22,13.20
2015,06,22,03,23,13.20
2015,06,22,03,24,13.20
2015,06,22,03,25,13.20
2015,06,22,03,26,13.20
2015,06,22,03,27,13.20
2015,06,22,03,28,13.20
2015,06,22,03,29,13.20
2015,06,22,03,30,13.20
2015,06,22,03,31,13.20
2015,06,22,03,32,13.20
2015,06,22,03,33,13.20
2015,06,22,03,34,13.20
2015,06,22,03,35,13.20
2015,06,22,03,36,13.20
2015,06,22,03,37,13.20
2015,06,22,03,38,13.10
2015,06,22,03,39,13.10
2015,06,22,03,40,13.10
2015,06,22,03,41,13.10
2015,06,22,03,42,13.10
2015,06,22,03,43,13.00
2015,06,22,03,44,13.00
2015,06,22,03,45,13.00
2015,06,22,03,46,12.90
2015,06,22,03,47,12.90
2015,06,22,03,48,12.90
2015,06,22,03,49,12.90
2015,06,22,03,50,12.90
2015,06,22,03,51,12.80
2015,06,22,03,52,12.80
2015,06,22,03,53,12.80
2015,06,22,03,54,12.80
2015,06,22,03,55,12.70
2015,06,22,03,56,12.70
2015,06,22,03,57,12.70
2015,06,22,03,58,12.70
2015,06,22,03,59,12.60
2015,06,22,04,00,12.60
2015,06,22,04,01,12.60
2015,06,22,04,02,12.60
2015,06,22,04,03,12.50
2015,06,22,04,04,12.50
2015,06,22,04,05,12.50
2015,06,22,04,06,12.50
2015,06,22,04,07,12.50
2015,06,22,04,08,12.40
2015,06,22,04,09,12.40
2015,06,22,04,10,12.40
2015,06,22,04,11,12.40
2015,06,22,04,12,12.40
2015,06,22,04,13,12.40
2015,06,22,04,14,12.40
2015,06,22,04,15,12.40
2015,06,22,04,16,12.40
2015,06,22,04,17,12.40
2015,06,22,04,18,12.40
2015,06,22,04,19,12.40
2015,06,22,04,20,12.40
2015,06,22,04,21,12.40
2015,06,22,04,22,12.40
2015,06,22,04,23,12.40
2015,06,22,04,24,12.40
2015,06,22,04,25,12.40
2015,06,22,04,26,12.40
2015,06,22,04,27,12.40
2015,06,22,04,28,12.40
2015,06,22,04,29,12.40
2015,06,22,04,30,12.40
2015,06,22,04,31,12.40
2015,06,22,04,32,12.40
2015,06,22,04,33,12.40
2015,06,22,04,34,12.40
2015,06,22,04,35,12.40
2015,06,22,04,36,12.40
2015,06,22,04,37,12.40
2015,06,22,04,38,12.40
2015,06,22,04,39,12.40
2015,06,22,04,40,12.40
2015,06,22,04,41,12.40
2015,06,22,04,42,12.40
2015,06,22,04,43,12.40
2015,06,22,04,44,12.40
2015,06,22,04,45,12.30
2015,06,22,04,46,12.30
2015,06,22,04,47,12.30
2015,06,22,04,48,12.30
2015,06,22,04,49,12.30
2015,06,22,04,50,12.30
2015,06,22,04,51,12.30
2015,06,22,04,52,12.30
2015,06,22,04,53,12.30
2015,06,22,04,54,12.30
2015,06,22,04,55,12.30
2015,06,22,04,56,12.30
2015,06,22,04,57,12.30
2015,06,22,04,58,12.20
2015,06,22,04,59,12.20
2015,06,22,05,00,12.20
2015,06,22,05,01,12.20
2015,06,22,05,02,12.10
2015,06,22,05,03,12.10
2015,06,22,05,04,12.00
2015,06,22,05,05,12.00
2015,06,22,05,06,11.90
2015,06,22,05,07,11.90
2015,06,22,05,08,11.90
2015,06,22,05,09,11.90
2015,06,22,05,10,11.90
2015,06,22,05,11,11.90
2015,06,22,05,12,11.90
2015,06,22,05,13,11.90
2015,06,22,05,14,11.90
2015,06,22,05,15,11.90
2015,06,22,05,16,11.90
2015,06,22,05,17,11.90
2015,06,22,05,18,11.90
2015,06,22,05,19,11.90
2015,06,22,05,20,11.90
2015,06,22,05,21,11.90
2015,06,22,05,22,11.90
2015,06,22,05,23,12.00
2015,06,22,05,24,12.00
2015,06,22,05,25,12.00
2015,06,22,05,26,12.00
2015,06,22,05,27,12.10
2015,06,22,05,28,12.10
2015,06,22,05,29,12.10
2015,06,22,05,30,12.10
2015,06,22,05,31,12.10
2015,06,22,05,32,12.10
2015,06,22,05,33,12.10
2015,06,22,05,34,12.10
2015,06,22,05,35,12.10
2015,06,22,05,36,12.10
2015,06,22,05,37,12.10
2015,06,22,05,38,12.00
2015,06,22,05,39,12.00
2015,06,22,05,40,12.00
2015,06,22,05,41,11.90
2015,06,22,05,42,11.90
2015,06,22,05,43,11.90
2015,06,22,05,44,11.80
2015,06,22,05,45,11.80
2015,06,22,05,46,11.80
2015,06,22,05,47,11.80
2015,06,22,05,48,11.70
2015,06,22,05,49,11.70
2015,06,22,05,50,11.70
2015,06,22,05,51,11.70
2015,06,22,05,52,11.80
2015,06,22,05,53,11.80
2015,06,22,05,54,11.80
2015,06,22,05,55,11.90
2015,06,22,05,56,11.90
2015,06,22,05,57,11.90
2015,06,22,05,58,12.00
2015,06,22,05,59,12.00
2015,06,22,06,00,12.00
2015,06,22,06,01,12.00
2015,06,22,06,02,12.10
2015,06,22,06,03,12.10
2015,06,22,06,04,12.10
2015,06,22,06,05,12.10
2015,06,22,06,06,12.20
2015,06,22,06,07,12.20
2015,06,22,06,08,12.20
2015,06,22,06,09,12.30
2015,06,22,06,10,12.30
2015,06,22,06,11,12.30
2015,06,22,06,12,12.30
2015,06,22,06,13,12.40
2015,06,22,06,14,12.40
2015,06,22,06,15,12.40
2015,06,22,06,16,12.40
2015,06,22,06,17,12.50
2015,06,22,06,18,12.50
2015,06,22,06,19,12.60
2015,06,22,06,20,12.60
2015,06,22,06,21,12.70
2015,06,22,06,22,12.70
2015,06,22,06,23,12.80
2015,06,22,06,24,12.80
2015,06,22,06,25,12.90
2015,06,22,06,26,12.90
2015,06,22,06,27,13.00
2015,06,22,06,28,13.10
2015,06,22,06,29,13.10
2015,06,22,06,30,13.20
2015,06,22,06,31,13.30
2015,06,22,06,32,13.40
2015,06,22,06,33,13.50
2015,06,22,06,34,13.60
2015,06,22,06,35,13.70
2015,06,22,06,36,13.80
2015,06,22,06,37,13.80
2015,06,22,06,38,13.90
2015,06,22,06,39,13.90
2015,06,22,06,40,14.00
2015,06,22,06,41,14.10
2015,06,22,06,42,14.10
2015,06,22,06,43,14.10
2015,06,22,06,44,14.20
2015,06,22,06,45,14.20
2015,06,22,06,46,14.30
2015,06,22,06,47,14.30
2015,06,22,06,48,14.40
2015,06,22,06,49,14.40
2015,06,22,06,50,14.50
2015,06,22,06,51,14.50
2015,06,22,06,52,14.60
2015,06,22,06,53,14.60
2015,06,22,06,54,14.70
2015,06,22,06,55,14.70
2015,06,22,06,56,14.70
2015,06,22,06,57,14.80
2015,06,22,06,58,14.80
2015,06,22,06,59,14.80
2015,06,22,07,00,14.80
2015,06,22,07,01,14.90
2015,06,22,07,02,14.90
2015,06,22,07,03,15.00
2015,06,22,07,04,15.00
2015,06,22,07,05,15.10
2015,06,22,07,06,15.20
2015,06,22,07,07,15.20
2015,06,22,07,08,15.30
2015,06,22,07,09,15.30
2015,06,22,07,10,15.40
2015,06,22,07,11,15.40
2015,06,22,07,12,15.50
2015,06,22,07,13,15.60
2015,06,22,07,14,15.60
2015,06,22,07,15,15.70
2015,06,22,07,16,15.80
2015,06,22,07,17,15.80
2015,06,22,07,18,15.90
2015,06,22,07,19,15.90
2015,06,22,07,20,16.00
2015,06,22,07,21,16.00
2015,06,22,07,22,16.10
2015,06,22,07,23,16.10
2015,06,22,07,24,16.20
2015,06,22,07,25,16.30
2015,06,22,07,26,16.40
2015,06,22,07,27,16.50
2015,06,22,07,28,16.60
2015,06,22,07,29,16.70
2015,06,22,07,30,16.80
2015,06,22,07,31,16.80
2015,06,22,07,32,16.90
2015,06,22,07,33,17.00
2015,06,22,07,34,17.10
2015,06,22,07,35,17.20
2015,06,22,07,36,17.30
2015,06,22,07,37,17.30
2015,06,22,07,38,17.40
2015,06,22,07,39,17.40
2015,06,22,07,40,17.40
2015,06,22,07,41,17.40
2015,06,22,07,42,17.40
2015,06,22,07,43,17.40
2015,06,22,07,44,17.40
2015,06,22,07,45,17.40
2015,06,22,07,46,17.40
2015,06,22,07,47,17.40
2015,06,22,07,48,17.40
2015,06,22,07,49,17.30
2015,06,22,07,50,17.30
2015,06,22,07,51,17.40
2015,06,22,07,52,17.40
2015,06,22,07,53,17.40
2015,06,22,07,54,17.40
2015,06,22,07,55,17.40
2015,06,22,07,56,17.40
2015,06,22,07,57,17.40
2015,06,22,07,58,17.40
2015,06,22,07,59,17.40
2015,06,22,08,00,17.40
2015,06,22,08,01,17.40
2015,06,22,08,02,17.40
2015,06,22,08,03,17.30
2015,06,22,08,04,17.20
2015,06,22,08,05,17.20
2015,06,22,08,06,17.20
2015,06,22,08,07,17.30
2015,06,22,08,08,17.30
2015,06,22,08,09,17.30
2015,06,22,08,10,17.40
2015,06,22,08,11,17.40
2015,06,22,08,12,17.40
2015,06,22,08,13,17.40
2015,06,22,08,14,17.50
2015,06,22,08,15,17.60
2015,06,22,08,16,17.70
2015,06,22,08,17,17.80
2015,06,22,08,18,17.90
2015,06,22,08,19,18.00
2015,06,22,08,20,18.10
2015,06,22,08,21,18.20
2015,06,22,08,22,18.30
2015,06,22,08,23,18.30
2015,06,22,08,24,18.40
2015,06,22,08,25,18.30
2015,06,22,08,26,18.30
2015,06,22,08,27,18.20
2015,06,22,08,28,18.20
2015,06,22,08,29,18.10
2015,06,22,08,30,18.10
2015,06,22,08,31,18.10
2015,06,22,08,32,18.10
2015,06,22,08,33,18.20
2015,06,22,08,34,18.20
2015,06,22,08,35,18.20
2015,06,22,08,36,18.30
2015,06,22,08,37,18.30
2015,06,22,08,38,18.40
2015,06,22,08,39,18.40
2015,06,22,08,40,18.50
2015,06,22,08,41,18.60
2015,06,22,08,42,18.70
2015,06,22,08,43,18.80
2015,06,22,08,44,18.80
2015,06,22,08,45,18.80
2015,06,22,08,46,18.90
2015,06,22,08,47,18.90
2015,06,22,08,48,18.90
2015,06,22,08,49,18.80
2015,06,22,08,50,18.70
2015,06,22,08,51,18.70
2015,06,22,08,52,18.70
2015,06,22,08,53,18.70
2015,06,22,08,54,18.70
2015,06,22,08,55,18.80
2015,06,22,08,56,18.90
2015,06,22,08,57,19.00
2015,06,22,08,58,19.10
2015,06,22,08,59,19.20
2015,06,22,09,00,19.30
2015,06,22,09,01,19.40
2015,06,22,09,02,19.50
2015,06,22,09,03,19.60
2015,06,22,09,04,19.70
2015,06,22,09,05,19.80
2015,06,22,09,06,19.80
2015,06,22,09,07,19.80
2015,06,22,09,08,19.80
2015,06,22,09,09,19.80
2015,06,22,09,10,19.80
2015,06,22,09,11,19.80
2015,06,22,09,12,19.80
2015,06,22,09,13,19.80
2015,06,22,09,14,19.80
2015,06,22,09,15,19.80
2015,06,22,09,16,19.80
2015,06,22,09,17,19.70
2015,06,22,09,18,19.80
2015,06,22,09,19,19.90
2015,06,22,09,20,20.00
2015,06,22,09,21,20.00
2015,06,22,09,22,20.10
2015,06,22,09,23,20.10
2015,06,22,09,24,20.10
2015,06,22,09,25,20.10
2015,06,22,09,26,20.10
2015,06,22,09,27,20.10
2015,06,22,09,28,20.00
2015,06,22,09,29,20.00
2015,06,22,09,30,19.90
2015,06,22,09,31,19.90
2015,06,22,09,32,19.90
2015,06,22,09,33,20.00
2015,06,22,09,34,20.10
2015,06,22,09,35,20.20
2015,06,22,09,36,20.20
2015,06,22,09,37,20.30
2015,06,22,09,38,20.30
2015,06,22,09,39,20.30
2015,06,22,09,40,20.30
2015,06,22,09,41,20.30
2015,06,22,09,42,20.30
2015,06,22,09,43,20.20
2015,06,22,09,44,20.10
2015,06,22,09,45,20.10
2015,06,22,09,46,20.10
2015,06,22,09,47,20.10
2015,06,22,09,48,20.20
2015,06,22,09,49,20.20
2015,06,22,09,50,20.10
2015,06,22,09,51,20.00
2015,06,22,09,52,19.80
2015,06,22,09,53,19.70
2015,06,22,09,54,19.50
2015,06,22,09,55,19.40
2015,06,22,09,56,19.30
2015,06,22,09,57,19.20
2015,06,22,09,58,19.20
2015,06,22,09,59,19.10
2015,06,22,10,00,19.00
2015,06,22,10,01,19.00
2015,06,22,10,02,19.00
2015,06,22,10,03,19.00
2015,06,22,10,04,19.10
2015,06,22,10,05,19.10
2015,06,22,10,06,19.10
2015,06,22,10,07,19.10
2015,06,22,10,08,19.10
2015,06,22,10,09,19.00
2015,06,22,10,10,19.00
2015,06,22,10,11,19.10
2015,06,22,10,12,19.20
2015,06,22,10,13,19.20
2015,06,22,10,14,19.20
2015,06,22,10,15,19.20
2015,06,22,10,16,19.20
2015,06,22,10,17,19.30
2015,06,22,10,18,19.40
2015,06,22,10,19,19.50
2015,06,22,10,20,19.70
2015,06,22,10,21,19.90
2015,06,22,10,22,20.00
2015,06,22,10,23,19.90
2015,06,22,10,24,19.90
2015,06,22,10,25,19.90
2015,06,22,10,26,20.00
2015,06,22,10,27,20.10
2015,06,22,10,28,20.20
2015,06,22,10,29,20.10
2015,06,22,10,30,20.00
2015,06,22,10,31,19.90
2015,06,22,10,32,19.80
2015,06,22,10,33,19.80
2015,06,22,10,34,19.60
2015,06,22,10,35,19.50
2015,06,22,10,36,19.40
2015,06,22,10,37,19.40
2015,06,22,10,38,19.50
2015,06,22,10,39,19.60
2015,06,22,10,40,19.80
2015,06,22,10,41,19.80
2015,06,22,10,42,19.80
2015,06,22,10,43,19.70
2015,06,22,10,44,19.60
2015,06,22,10,45,19.60
2015,06,22,10,46,19.60
2015,06,22,10,47,19.70
2015,06,22,10,48,19.80
2015,06,22,10,49,19.90
2015,06,22,10,50,19.90
2015,06,22,10,51,19.90
2015,06,22,10,52,19.90
2015,06,22,10,53,20.00
2015,06,22,10,54,20.20
2015,06,22,10,55,20.30
2015,06,22,10,56,20.40
2015,06,22,10,57,20.40
2015,06,22,10,58,20.40
2015,06,22,10,59,20.50
2015,06,22,11,00,20.60
2015,06,22,11,01,20.70
2015,06,22,11,02,20.80
2015,06,22,11,03,20.80
2015,06,22,11,04,20.80
2015,06,22,11,05,20.70
2015,06,22,11,06,20.70
2015,06,22,11,07,20.80
2015,06,22,11,08,20.70
2015,06,22,11,09,20.60
2015,06,22,11,10,20.50
2015,06,22,11,11,20.40
2015,06,22,11,12,20.50
2015,06,22,11,13,20.40
2015,06,22,11,14,20.40
2015,06,22,11,15,20.50
2015,06,22,11,16,20.50
2015,06,22,11,17,20.50
2015,06,22,11,18,20.40
2015,06,22,11,19,20.40
2015,06,22,11,20,20.40
2015,06,22,11,21,20.40
2015,06,22,11,22,20.30
2015,06,22,11,23,20.40
2015,06,22,11,24,20.50
2015,06,22,11,25,20.60
2015,06,22,11,26,20.80
2015,06,22,11,27,21.00
2015,06,22,11,28,21.20
2015,06,22,11,29,21.20
2015,06,22,11,30,21.10
2015,06,22,11,31,21.00
2015,06,22,11,32,20.90
2015,06,22,11,33,21.00
2015,06,22,11,34,20.90
2015,06,22,11,35,20.90
2015,06,22,11,36,20.90
2015,06,22,11,37,20.90
2015,06,22,11,38,21.00
2015,06,22,11,39,21.10
2015,06,22,11,40,21.10
2015,06,22,11,41,21.10
2015,06,22,11,42,21.10
2015,06,22,11,43,21.00
2015,06,22,11,44,20.90
2015,06,22,11,45,20.90
2015,06,22,11,46,20.80
2015,06,22,11,47,20.80
2015,06,22,11,48,20.80
2015,06,22,11,49,20.80
2015,06,22,11,50,20.80
2015,06,22,11,51,20.80
2015,06,22,11,52,20.90
2015,06,22,11,53,21.00
2015,06,22,11,54,21.10
2015,06,22,11,55,21.20
2015,06,22,11,56,21.30
2015,06,22,11,57,21.30
2015,06,22,11,58,21.30
2015,06,22,11,59,21.30
2015,06,22,12,00,21.30
2015,06,22,12,01,21.30
2015,06,22,12,02,21.20
2015,06,22,12,03,21.20
2015,06,22,12,04,21.20
2015,06,22,12,05,21.10
2015,06,22,12,06,21.10
2015,06,22,12,07,21.20
2015,06,22,12,08,21.30
2015,06,22,12,09,21.40
2015,06,22,12,10,21.60
2015,06,22,12,11,21.90
2015,06,22,12,12,22.00
2015,06,22,12,13,22.10
2015,06,22,12,14,22.10
2015,06,22,12,15,22.10
2015,06,22,12,16,22.00
2015,06,22,12,17,21.90
2015,06,22,12,18,21.90
2015,06,22,12,19,22.00
2015,06,22,12,20,22.00
2015,06,22,12,21,22.00
2015,06,22,12,22,21.90
2015,06,22,12,23,21.80
2015,06,22,12,24,21.70
2015,06,22,12,25,21.70
2015,06,22,12,26,21.80
2015,06,22,12,27,21.90
2015,06,22,12,28,22.00
2015,06,22,12,29,22.20
2015,06,22,12,30,22.20
2015,06,22,12,31,22.30
2015,06,22,12,32,22.40
2015,06,22,12,33,22.50
2015,06,22,12,34,22.70
2015,06,22,12,35,22.80
2015,06,22,12,36,22.90
2015,06,22,12,37,22.90
2015,06,22,12,38,22.80
2015,06,22,12,39,22.70
2015,06,22,12,40,22.60
2015,06,22,12,41,22.50
2015,06,22,12,42,22.40
2015,06,22,12,43,22.30
2015,06,22,12,44,22.30
2015,06,22,12,45,22.40
2015,06,22,12,46,22.30
2015,06,22,12,47,22.20
2015,06,22,12,48,22.30
2015,06,22,12,49,22.50
2015,06,22,12,50,22.60
2015,06,22,12,51,22.70
2015,06,22,12,52,22.60
2015,06,22,12,53,22.50
2015,06,22,12,54,22.50
2015,06,22,12,55,22.40
2015,06,22,12,56,22.30
2015,06,22,12,57,22.30
2015,06,22,12,58,22.40
2015,06,22,12,59,22.70
2015,06,22,13,00,22.80
2015,06,22,13,01,22.80
2015,06,22,13,02,22.80
2015,06,22,13,03,22.90
2015,06,22,13,04,22.90
2015,06,22,13,05,23.00
2015,06,22,13,06,23.20
2015,06,22,13,07,23.20
2015,06,22,13,08,23.20
2015,06,22,13,09,23.20
2015,06,22,13,10,23.20
2015,06,22,13,11,23.10
2015,06,22,13,12,23.00
2015,06,22,13,13,22.80
2015,06,22,13,14,22.70
2015,06,22,13,15,22.60
2015,06,22,13,16,22.50
2015,06,22,13,17,22.50
2015,06,22,13,18,22.60
2015,06,22,13,19,22.60
2015,06,22,13,20,22.60
2015,06,22,13,21,22.70
2015,06,22,13,22,22.70
2015,06,22,13,23,22.70
2015,06,22,13,24,22.70
2015,06,22,13,25,22.70
2015,06,22,13,26,22.80
2015,06,22,13,27,22.80
2015,06,22,13,28,22.80
2015,06,22,13,29,22.80
2015,06,22,13,30,22.80
2015,06,22,13,31,22.80
2015,06,22,13,32,22.80
2015,06,22,13,33,22.80
2015,06,22,13,34,22.70
2015,06,22,13,35,22.70
2015,06,22,13,36,22.80
2015,06,22,13,37,22.80
2015,06,22,13,38,22.90
2015,06,22,13,39,23.00
2015,06,22,13,40,23.10
2015,06,22,13,41,23.10
2015,06,22,13,42,23.10
2015,06,22,13,43,23.10
2015,06,22,13,44,23.00
2015,06,22,13,45,22.80
2015,06,22,13,46,22.70
2015,06,22,13,47,22.60
2015,06,22,13,48,22.70
2015,06,22,13,49,22.80
2015,06,22,13,50,22.80
2015,06,22,13,51,22.70
2015,06,22,13,52,22.80
2015,06,22,13,53,22.80
2015,06,22,13,54,22.90
2015,06,22,13,55,23.00
2015,06,22,13,56,22.90
2015,06,22,13,57,22.90
2015,06,22,13,58,22.80
2015,06,22,13,59,22.80
2015,06,22,14,00,22.90
2015,06,22,14,01,22.90
2015,06,22,14,02,22.90
2015,06,22,14,03,22.90
2015,06,22,14,04,23.00
2015,06,22,14,05,23.10
2015,06,22,14,06,23.10
2015,06,22,14,07,23.10
2015,06,22,14,08,23.00
2015,06,22,14,09,23.00
2015,06,22,14,10,23.10
2015,06,22,14,11,23.10
2015,06,22,14,12,23.10
2015,06,22,14,13,23.10
2015,06,22,14,14,23.00
2015,06,22,14,15,23.10
2015,06,22,14,16,23.10
2015,06,22,14,17,23.20
2015,06,22,14,18,23.20
2015,06,22,14,19,23.30
2015,06,22,14,20,23.30
2015,06,22,14,21,23.30
2015,06,22,14,22,23.30
2015,06,22,14,23,23.40
2015,06,22,14,24,23.40
2015,06,22,14,25,23.40
2015,06,22,14,26,23.40
2015,06,22,14,27,23.40
2015,06,22,14,28,23.40
2015,06,22,14,29,23.40
2015,06,22,14,30,23.30
2015,06,22,14,31,23.40
2015,06,22,14,32,23.50
2015,06,22,14,33,23.50
2015,06,22,14,34,23.40
2015,06,22,14,35,23.30
2015,06,22,14,36,23.30
2015,06,22,14,37,23.30
2015,06,22,14,38,23.30
2015,06,22,14,39,23.30
2015,06,22,14,40,23.30
2015,06,22,14,41,23.30
2015,06,22,14,42,23.20
2015,06,22,14,43,23.20
2015,06,22,14,44,23.20
2015,06,22,14,45,23.30
2015,06,22,14,46,23.40
2015,06,22,14,47,23.40
2015,06,22,14,48,23.40
2015,06,22,14,49,23.50
2015,06,22,14,50,23.60
2015,06,22,14,51,23.60
2015,06,22,14,52,23.60
2015,06,22,14,53,23.70
2015,06,22,14,54,23.70
2015,06,22,14,55,23.70
2015,06,22,14,56,23.70
2015,06,22,14,57,23.80
2015,06,22,14,58,23.80
2015,06,22,14,59,23.70
2015,06,22,15,00,23.60
2015,06,22,15,01,23.60
2015,06,22,15,02,23.60
2015,06,22,15,03,23.60
2015,06,22,15,04,23.60
2015,06,22,15,05,23.60
2015,06,22,15,06,23.50
2015,06,22,15,07,23.50
2015,06,22,15,08,23.50
2015,06,22,15,09,23.60
2015,06,22,15,10,23.70
2015,06,22,15,11,23.70
2015,06,22,15,12,23.70
2015,06,22,15,13,23.70
2015,06,22,15,14,23.80
2015,06,22,15,15,23.90
2015,06,22,15,16,24.00
2015,06,22,15,17,24.10
2015,06,22,15,18,24.10
2015,06,22,15,19,24.10
2015,06,22,15,20,23.90
2015,06,22,15,21,23.90
2015,06,22,15,22,23.90
2015,06,22,15,23,24.00
2015,06,22,15,24,24.10
2015,06,22,15,25,24.10
2015,06,22,15,26,24.10
2015,06,22,15,27,24.10
2015,06,22,15,28,24.20
2015,06,22,15,29,24.00
2015,06,22,15,30,24.00
2015,06,22,15,31,23.90
2015,06,22,15,32,23.90
2015,06,22,15,33,23.80
2015,06,22,15,34,23.90
2015,06,22,15,35,24.00
2015,06,22,15,36,24.00
2015,06,22,15,37,24.10
2015,06,22,15,38,24.00
2015,06,22,15,39,24.10
2015,06,22,15,40,24.10
2015,06,22,15,41,24.20
2015,06,22,15,42,24.10
2015,06,22,15,43,24.00
2015,06,22,15,44,24.00
2015,06,22,15,45,23.90
2015,06,22,15,46,23.80
2015,06,22,15,47,23.70
2015,06,22,15,48,23.70
2015,06,22,15,49,23.80
2015,06,22,15,50,23.80
2015,06,22,15,51,23.80
2015,06,22,15,52,23.80
2015,06,22,15,53,23.80
2015,06,22,15,54,23.70
2015,06,22,15,55,23.70
2015,06,22,15,56,23.70
2015,06,22,15,57,23.60
2015,06,22,15,58,23.50
2015,06,22,15,59,23.40
2015,06,22,16,00,23.40
2015,06,22,16,01,23.30
2015,06,22,16,02,23.30
2015,06,22,16,03,23.30
2015,06,22,16,04,23.30
2015,06,22,16,05,23.30
2015,06,22,16,06,23.20
2015,06,22,16,07,23.20
2015,06,22,16,08,23.20
2015,06,22,16,09,23.30
2015,06,22,16,10,23.30
2015,06,22,16,11,23.30
2015,06,22,16,12,23.30
2015,06,22,16,13,23.30
2015,06,22,16,14,23.30
2015,06,22,16,15,23.30
2015,06,22,16,16,23.30
2015,06,22,16,17,23.20
2015,06,22,16,18,23.10
2015,06,22,16,19,23.10
2015,06,22,16,20,23.10
2015,06,22,16,21,23.10
2015,06,22,16,22,23.10
2015,06,22,16,23,23.20
2015,06,22,16,24,23.20
2015,06,22,16,25,23.30
2015,06,22,16,26,23.20
2015,06,22,16,27,23.20
2015,06,22,16,28,23.20
2015,06,22,16,29,23.20
2015,06,22,16,30,23.20
2015,06,22,16,31,23.20
2015,06,22,16,32,23.20
2015,06,22,16,33,23.20
2015,06,22,16,34,23.20
2015,06,22,16,35,23.20
2015,06,22,16,36,23.20
2015,06,22,16,37,23.30
2015,06,22,16,38,23.30
2015,06,22,16,39,23.40
2015,06,22,16,40,23.40
2015,06,22,16,41,23.40
2015,06,22,16,42,23.40
2015,06,22,16,43,23.40
2015,06,22,16,44,23.40
2015,06,22,16,45,23.40
2015,06,22,16,46,23.40
2015,06,22,16,47,23.50
2015,06,22,16,48,23.60
2015,06,22,16,49,23.60
2015,06,22,16,50,23.60
2015,06,22,16,51,23.60
2015,06,22,16,52,23.50
2015,06,22,16,53,23.50
2015,06,22,16,54,23.40
2015,06,22,16,55,23.30
2015,06,22,16,56,23.30
2015,06,22,16,57,23.40
2015,06,22,16,58,23.50
2015,06,22,16,59,23.50
2015,06,22,17,00,23.50
2015,06,22,17,01,23.50
2015,06,22,17,02,23.40
2015,06,22,17,03,23.40
2015,06,22,17,04,23.40
2015,06,22,17,05,23.30
2015,06,22,17,06,23.30
2015,06,22,17,07,23.30
2015,06,22,17,08,23.20
2015,06,22,17,09,23.30
2015,06,22,17,10,23.30
2015,06,22,17,11,23.30
2015,06,22,17,12,23.30
2015,06,22,17,13,23.30
2015,06,22,17,14,23.20
2015,06,22,17,15,23.30
2015,06,22,17,16,23.20
2015,06,22,17,17,23.20
2015,06,22,17,18,23.20
2015,06,22,17,19,23.10